Location: Norton
(51.3000°N, 0.8167°E)
Time: 14:04:07
(UTC+00:00)

Meteor 2-12 Rocket - Pass Details

Date: 03 March 2021
Orbit: 936 x 956 km, 82.5° (Epoch: 11 April)

Event Time Altitude Azimuth Distance (km) Brightness Sun altitude
Rises 18:50:34 0° 181° (S) 3,587 7.4 -11.6°
Reaches altitude 10° 18:53:02 10° 179° (S) 2,649 6.7 -12.0°
Maximum altitude 18:59:03 72° 97° (E) 995 4.4 -13.0°
Drops below altitude 10° 19:05:09 10° 14° (NNE) 2,681 6.7 -13.9°
Sets 19:07:40 0° 12° (NNE) 3,633 7.4 -14.3°
